Time,TemperatureF,DewpointF,PressureIn,WindDirection,WindDirectionDegrees,WindSpeedMPH,WindSpeedGustMPH,Humidity,HourlyPrecipIn,Conditions,Clouds,dailyrainin,SoftwareType,DateUTC
2013-01-15 00:14:00,41.2,25.0,30.39,East,96,2.0,2.0,52,0.00,,,0.00,weatherlink.com 1.10,2013-01-15 08:14:00,
2013-01-15 00:29:00,40.6,24.0,30.39,East,89,2.0,2.0,53,0.00,,,0.00,weatherlink.com 1.10,2013-01-15 08:29:00,
2013-01-15 00:44:00,40.1,24.0,30.39,East,89,3.0,4.0,54,0.00,,,0.00,weatherlink.com 1.10,2013-01-15 08:44:00,
2013-01-15 00:59:00,40.3,24.0,30.39,ESE,108,2.0,2.0,53,0.00,,,0.00,weatherlink.com 1.10,2013-01-15 08:59:00,
2013-01-15 01:14:00,40.9,24.0,30.39,East,95,2.0,2.0,52,0.00,,,0.00,weatherlink.com 1.10,2013-01-15 09:14:00,
2013-01-15 01:29:00,40.4,24.0,30.39,East,98,2.0,3.0,52,0.00,,,0.00,weatherlink.com 1.10,2013-01-15 09:29:00,
2013-01-15 01:45:00,40.3,24.0,30.40,East,96,1.0,2.0,52,0.00,,,0.00,weatherlink.com 1.10,2013-01-15 09:45:00,
2013-01-15 02:00:00,40.5,24.0,30.40,ENE,76,2.0,2.0,52,0.00,,,0.00,weatherlink.com 1.10,2013-01-15 10:00:00,
2013-01-15 02:15:00,40.2,24.0,30.41,East,89,2.0,2.0,53,0.00,,,0.00,weatherlink.com 1.10,2013-01-15 10:15:00,
2013-01-15 02:30:00,40.4,24.0,30.41,East,83,2.0,2.0,52,0.00,,,0.00,weatherlink.com 1.10,2013-01-15 10:30:00,
2013-01-15 02:45:00,40.4,24.0,30.41,East,82,1.0,2.0,52,0.00,,,0.00,weatherlink.com 1.10,2013-01-15 10:45:00,
2013-01-15 03:00:00,39.5,24.0,30.41,East,82,2.0,3.0,55,0.00,,,0.00,weatherlink.com 1.10,2013-01-15 11:00:00,
2013-01-15 03:15:00,39.1,24.0,30.41,East,100,2.0,3.0,56,0.00,,,0.00,weatherlink.com 1.10,2013-01-15 11:15:00,
2013-01-15 03:30:00,39.6,24.0,30.41,East,87,2.0,2.0,54,0.00,,,0.00,weatherlink.com 1.10,2013-01-15 11:30:00,
2013-01-15 03:45:00,39.7,24.0,30.41,East,98,2.0,3.0,54,0.00,,,0.00,weatherlink.com 1.10,2013-01-15 11:45:00,
2013-01-15 04:00:00,40.2,24.0,30.42,East,96,2.0,2.0,52,0.00,,,0.00,weatherlink.com 1.10,2013-01-15 12:00:00,
2013-01-15 04:15:00,40.2,24.0,30.42,East,98,1.0,1.0,53,0.00,,,0.00,weatherlink.com 1.10,2013-01-15 12:15:00,
2013-01-15 04:30:00,38.9,24.0,30.41,ESE,117,2.0,2.0,56,0.00,,,0.00,weatherlink.com 1.10,2013-01-15 12:30:00,
2013-01-15 04:45:00,38.5,26.0,30.42,ESE,103,1.0,2.0,60,0.00,,,0.00,weatherlink.com 1.10,2013-01-15 12:45:00,
2013-01-15 05:00:00,38.2,27.0,30.42,East,89,1.0,2.0,64,0.00,,,0.00,weatherlink.com 1.10,2013-01-15 13:00:00,
2013-01-15 05:15:00,37.3,28.0,30.42,ESE,103,2.0,2.0,68,0.00,,,0.00,weatherlink.com 1.10,2013-01-15 13:15:00,
2013-01-15 05:30:00,37.2,26.0,30.42,East,95,2.0,2.0,65,0.00,,,0.00,weatherlink.com 1.10,2013-01-15 13:30:00,
2013-01-15 05:45:00,37.1,25.0,30.42,East,95,1.0,2.0,62,0.00,,,0.00,weatherlink.com 1.10,2013-01-15 13:45:00,
2013-01-15 06:00:00,37.0,25.0,30.42,East,89,2.0,3.0,61,0.00,,,0.00,weatherlink.com 1.10,2013-01-15 14:00:00,
2013-01-15 06:15:00,36.5,25.0,30.43,East,86,2.0,2.0,63,0.00,,,0.00,weatherlink.com 1.10,2013-01-15 14:15:00,
2013-01-15 06:30:00,36.5,25.0,30.43,East,84,1.0,2.0,64,0.00,,,0.00,weatherlink.com 1.10,2013-01-15 14:30:00,
2013-01-15 06:45:00,36.0,25.0,30.43,ENE,60,1.0,2.0,65,0.00,,,0.00,weatherlink.com 1.10,2013-01-15 14:45:00,
2013-01-15 07:00:00,36.4,26.0,30.43,NE,53,2.0,2.0,65,0.00,,,0.00,weatherlink.com 1.10,2013-01-15 15:00:00,
2013-01-15 07:15:00,37.3,26.0,30.44,ENE,67,1.0,2.0,65,0.00,,,0.00,weatherlink.com 1.10,2013-01-15 15:15:00,
2013-01-15 07:30:00,36.9,27.0,30.44,NE,44,2.0,3.0,68,0.00,,,0.00,weatherlink.com 1.10,2013-01-15 15:30:00,
2013-01-15 07:45:00,37.6,27.0,30.45,East,84,1.0,1.0,67,0.00,,,0.00,weatherlink.com 1.10,2013-01-15 15:45:00,
2013-01-15 08:00:00,38.7,28.0,30.45,East,91,1.0,2.0,65,0.00,,,0.00,weatherlink.com 1.10,2013-01-15 16:00:00,
2013-01-15 08:15:00,39.4,28.0,30.45,ENE,63,2.0,2.0,63,0.00,,,0.00,weatherlink.com 1.10,2013-01-15 16:15:00,
2013-01-15 08:30:00,40.1,28.0,30.46,NE,48,1.0,2.0,62,0.00,,,0.00,weatherlink.com 1.10,2013-01-15 16:30:00,
2013-01-15 08:45:00,41.8,27.0,30.46,NE,41,1.0,4.0,57,0.00,,,0.00,weatherlink.com 1.10,2013-01-15 16:45:00,
2013-01-15 09:00:00,44.0,27.0,30.46,NE,39,2.0,7.0,51,0.00,,,0.00,weatherlink.com 1.10,2013-01-15 17:00:00,
2013-01-15 09:15:00,44.8,25.0,30.46,ENE,63,4.0,10.0,47,0.00,,,0.00,weatherlink.com 1.10,2013-01-15 17:15:00,
2013-01-15 09:30:00,45.6,26.0,30.46,ENE,75,3.0,9.0,46,0.00,,,0.00,weatherlink.com 1.10,2013-01-15 17:30:00,
2013-01-15 09:48:00,45.7,27.0,30.46,ENE,68,3.0,6.0,48,0.00,,,0.00,weatherlink.com 1.10,2013-01-15 17:48:00,
2013-01-15 10:01:00,46.3,26.0,30.46,NE,52,7.0,10.0,46,0.00,,,0.00,weatherlink.com 1.10,2013-01-15 18:01:00,
2013-01-15 10:16:00,46.9,27.0,30.47,NNE,28,3.0,7.0,46,0.00,,,0.00,weatherlink.com 1.10,2013-01-15 18:16:00,
2013-01-15 10:31:00,47.6,28.0,30.46,ESE,112,7.0,9.0,46,0.00,,,0.00,weatherlink.com 1.10,2013-01-15 18:31:00,
2013-01-15 10:46:00,49.0,28.0,30.46,NE,50,2.0,8.0,44,0.00,,,0.00,weatherlink.com 1.10,2013-01-15 18:46:00,
2013-01-15 11:01:00,48.4,27.0,30.46,North,8,3.0,8.0,44,0.00,,,0.00,weatherlink.com 1.10,2013-01-15 19:01:00,
2013-01-15 11:16:00,49.3,28.0,30.45,ENE,64,2.0,7.0,44,0.00,,,0.00,weatherlink.com 1.10,2013-01-15 19:16:00,
2013-01-15 11:31:00,49.3,27.0,30.45,NE,52,2.0,6.0,42,0.00,,,0.00,weatherlink.com 1.10,2013-01-15 19:31:00,
2013-01-15 11:46:00,50.4,27.0,30.45,NE,49,2.0,4.0,40,0.00,,,0.00,weatherlink.com 1.10,2013-01-15 19:46:00,
2013-01-15 12:01:00,50.4,27.0,30.44,North,354,1.0,8.0,40,0.00,,,0.00,weatherlink.com 1.10,2013-01-15 20:01:00,
2013-01-15 12:16:00,51.5,28.0,30.44,East,91,4.0,5.0,40,0.00,,,0.00,weatherlink.com 1.10,2013-01-15 20:16:00,
2013-01-15 12:31:00,51.4,28.0,30.43,ESE,116,5.0,8.0,40,0.00,,,0.00,weatherlink.com 1.10,2013-01-15 20:31:00,
2013-01-15 12:46:00,51.1,27.0,30.42,ESE,113,1.0,9.0,40,0.00,,,0.00,weatherlink.com 1.10,2013-01-15 20:46:00,
2013-01-15 13:01:00,51.5,26.0,30.42,East,101,3.0,10.0,38,0.00,,,0.00,weatherlink.com 1.10,2013-01-15 21:01:00,
2013-01-15 13:16:00,51.2,26.0,30.41,NE,52,6.0,10.0,38,0.00,,,0.00,weatherlink.com 1.10,2013-01-15 21:16:00,
2013-01-15 13:31:00,51.2,26.0,30.41,ESE,106,5.0,10.0,38,0.00,,,0.00,weatherlink.com 1.10,2013-01-15 21:31:00,
2013-01-15 13:46:00,51.5,26.0,30.41,NE,52,4.0,10.0,38,0.00,,,0.00,weatherlink.com 1.10,2013-01-15 21:46:00,
2013-01-15 14:01:00,51.8,27.0,30.41,NE,53,3.0,10.0,38,0.00,,,0.00,weatherlink.com 1.10,2013-01-15 22:01:00,
2013-01-15 14:16:00,51.1,27.0,30.41,NE,44,6.0,11.0,39,0.00,,,0.00,weatherlink.com 1.10,2013-01-15 22:16:00,
2013-01-15 14:31:00,51.0,27.0,30.40,ESE,106,2.0,9.0,39,0.00,,,0.00,weatherlink.com 1.10,2013-01-15 22:31:00,
2013-01-15 14:46:00,51.4,27.0,30.41,ENE,67,3.0,14.0,39,0.00,,,0.00,weatherlink.com 1.10,2013-01-15 22:46:00,
2013-01-15 15:01:00,50.5,27.0,30.41,NE,56,4.0,10.0,40,0.00,,,0.00,weatherlink.com 1.10,2013-01-15 23:01:00,
2013-01-15 15:16:00,50.6,28.0,30.41,NE,54,3.0,6.0,42,0.00,,,0.00,weatherlink.com 1.10,2013-01-15 23:16:00,
2013-01-15 15:31:00,50.9,29.0,30.41,NE,43,6.0,8.0,43,0.00,,,0.00,weatherlink.com 1.10,2013-01-15 23:31:00,
2013-01-15 15:46:00,50.5,29.0,30.41,ENE,62,3.0,7.0,43,0.00,,,0.00,weatherlink.com 1.10,2013-01-15 23:46:00,
2013-01-15 16:01:00,50.3,29.0,30.41,NNE,18,5.0,7.0,44,0.00,,,0.00,weatherlink.com 1.10,2013-01-16 00:01:00,
2013-01-15 16:16:00,50.0,30.0,30.42,NE,50,4.0,7.0,46,0.00,,,0.00,weatherlink.com 1.10,2013-01-16 00:16:00,
2013-01-15 16:31:00,49.7,29.0,30.42,NE,41,2.0,5.0,46,0.00,,,0.00,weatherlink.com 1.10,2013-01-16 00:31:00,
2013-01-15 16:46:00,48.9,30.0,30.42,NE,39,3.0,5.0,48,0.00,,,0.00,weatherlink.com 1.10,2013-01-16 00:46:00,
2013-01-15 17:01:00,48.3,30.0,30.42,ENE,65,0.0,4.0,50,0.00,,,0.00,weatherlink.com 1.10,2013-01-16 01:01:00,
2013-01-15 17:16:00,47.2,30.0,30.42,ENE,71,1.0,2.0,52,0.00,,,0.00,weatherlink.com 1.10,2013-01-16 01:16:00,
2013-01-15 17:31:00,45.8,30.0,30.42,NE,54,1.0,3.0,55,0.00,,,0.00,weatherlink.com 1.10,2013-01-16 01:31:00,
2013-01-15 17:46:00,45.3,31.0,30.42,ENE,67,2.0,4.0,57,0.00,,,0.00,weatherlink.com 1.10,2013-01-16 01:46:00,
2013-01-15 18:01:00,44.9,30.0,30.41,ENE,74,2.0,4.0,57,0.00,,,0.00,weatherlink.com 1.10,2013-01-16 02:01:00,
2013-01-15 18:16:00,44.6,29.0,30.42,NNE,25,2.0,5.0,54,0.00,,,0.00,weatherlink.com 1.10,2013-01-16 02:16:00,
2013-01-15 18:31:00,43.9,28.0,30.42,NE,41,3.0,3.0,55,0.00,,,0.00,weatherlink.com 1.10,2013-01-16 02:31:00,
2013-01-15 18:46:00,43.7,29.0,30.41,ENE,59,1.0,4.0,56,0.00,,,0.00,weatherlink.com 1.10,2013-01-16 02:46:00,
2013-01-15 19:01:00,43.6,28.0,30.41,NE,56,2.0,3.0,55,0.00,,,0.00,weatherlink.com 1.10,2013-01-16 03:01:00,
2013-01-15 19:16:00,43.6,28.0,30.42,NE,46,2.0,4.0,54,0.00,,,0.00,weatherlink.com 1.10,2013-01-16 03:16:00,
2013-01-15 19:31:00,43.1,28.0,30.41,NE,41,2.0,3.0,56,0.00,,,0.00,weatherlink.com 1.10,2013-01-16 03:31:00,
2013-01-15 19:46:00,43.3,28.0,30.42,East,82,1.0,3.0,56,0.00,,,0.00,weatherlink.com 1.10,2013-01-16 03:46:00,
2013-01-15 20:16:00,42.5,30.0,30.41,ENE,61,0.0,3.0,61,0.00,,,0.00,weatherlink.com 1.10,2013-01-16 04:16:00,
2013-01-15 20:31:00,42.0,30.0,30.41,NNE,26,0.0,2.0,63,0.00,,,0.00,weatherlink.com 1.10,2013-01-16 04:31:00,
2013-01-15 20:46:00,41.7,30.0,30.41,NNE,16,0.0,1.0,64,0.00,,,0.00,weatherlink.com 1.10,2013-01-16 04:46:00,
2013-01-15 21:16:00,41.0,30.0,30.41,NNE,30,1.0,2.0,66,0.00,,,0.00,weatherlink.com 1.10,2013-01-16 05:16:00,
2013-01-15 21:31:00,40.3,30.0,30.40,East,86,0.0,1.0,68,0.00,,,0.00,weatherlink.com 1.10,2013-01-16 05:31:00,
2013-01-15 21:46:00,39.8,30.0,30.41,ENE,72,0.0,0.0,69,0.00,,,0.00,weatherlink.com 1.10,2013-01-16 05:46:00,
2013-01-15 22:01:00,39.4,31.0,30.41,NNE,26,2.0,2.0,71,0.00,,,0.00,weatherlink.com 1.10,2013-01-16 06:01:00,
2013-01-15 22:16:00,39.2,31.0,30.40,East,82,1.0,2.0,72,0.00,,,0.00,weatherlink.com 1.10,2013-01-16 06:16:00,
2013-01-15 22:32:00,39.1,31.0,30.41,East,95,0.0,1.0,72,0.00,,,0.00,weatherlink.com 1.10,2013-01-16 06:32:00,
2013-01-15 22:46:00,38.9,31.0,30.41,East,101,0.0,0.0,73,0.00,,,0.00,weatherlink.com 1.10,2013-01-16 06:46:00,
2013-01-15 23:01:00,39.5,31.0,30.41,NNW,338,0.0,0.0,71,0.00,,,0.00,weatherlink.com 1.10,2013-01-16 07:01:00,
2013-01-15 23:16:00,38.4,31.0,30.41,ENE,60,0.0,1.0,74,0.00,,,0.00,weatherlink.com 1.10,2013-01-16 07:16:00,
2013-01-15 23:31:00,38.8,31.0,30.41,ESE,119,1.0,2.0,73,0.00,,,0.00,weatherlink.com 1.10,2013-01-16 07:31:00,
2013-01-15 23:47:00,39.3,31.0,30.41,East,91,0.0,1.0,72,0.00,,,0.00,weatherlink.com 1.10,2013-01-16 07:47:00,